Regional Weather Roundup
Issued by NWS

Home | Current Version | Previous Version | Graphics & Text | Print | Product List | Glossary On
Versions: 1 2 3 4 5 6 7 8 9 10 11 12 13 14 15 16 17 18 19 20 21 22 23 24 25 26 27 28 29 30 31 32 33 34 35 36 37 38 39 40 41 42 43 44 45 46 47 48 49 50
000
ASUS43 KIND 261559
RWRIN

WEATHER ROUNDUP FOR INDIANA
NATIONAL WEATHER SERVICE INDIANAPOLIS IN
1200 PM EDT TUE JUL 26 2016

NOTE: "FAIR" INDICATES FEW OR NO CLOUDS BELOW 12,000 FEET WITH NO
SIGNIFICANT WEATHER AND/OR OBSTRUCTIONS TO VISIBILITY.

* - STATION DOES NOT REPORT WEATHER SUCH AS PRECIPITATION OR FOG.

+ - STATION NOT QUALITY CONTROLLED BY THE NATIONAL WEATHER SERVICE.
    USE DATA WITH CAUTION...ESPECIALLY DEWPOINT AND RELATIVE
    HUMIDITY OBSERVATIONS.

INZ001>003-010>013-019-020-261700-
NORTHWEST INDIANA

CITY           SKY/WX    TMP DP  RH WIND       PRES   REMARKS
GARY /AIRPORT/ PTSUNNY   82  70  65 CALM        N/A
KNOX *+        SUNNY     79  54  41 CALM      30.07S
MONTICELLO +   CLOUDY    79  63  57 SE5       30.07R

$$

LMZ046-743>745-261700-
SOUTHERN LAKE MICHIGAN

STATION/POSITION TIME  TEMP    WIND        PRES    WAVE
                       AIR SEA DIR/SP/G            HT
                 (UTC) (F)     (DEG/KT/KT) (MB)    (FT)
BURNS HARBOR     1500   75     360/  4/  6 1018.6S
MICHIGAN CITY    1500   75     360/  7/  8   N/A
5NW MICH CITY    1500   76 76   30/  4/  4   N/A     0

$$

INZ004-005-014>016-021>024-261700-
NORTH CENTRAL INDIANA

CITY           SKY/WX    TMP DP  RH WIND       PRES   REMARKS
ELKHART        SUNNY     81  68  65 E7        30.09S
GOSHEN         SUNNY     82  60  47 E6        30.08S
SOUTH BEND     SUNNY     81  63  54 VRB5      30.08S

$$

INZ006>009-017-018-025>027-261700-
NORTHEAST INDIANA

CITY           SKY/WX    TMP DP  RH WIND       PRES   REMARKS
ANGOLA *+        N/A     81  73  78 CALM      30.09R
FORT WAYNE     PTSUNNY   82  62  50 CALM      30.08S

$$

INZ028-029-035-036-043>045-051>053-261700-
WEST CENTRAL INDIANA

CITY           SKY/WX    TMP DP  RH WIND       PRES   REMARKS
CRAWFORDSVL +  RAIN      69  69 100 E3        30.07F
LAFAYETTE      CLOUDY    78  67  68 E10       30.06S
TERRE HAUTE    CLOUDY    72  69  90 E10       30.05F FOG

$$

INZ030>032-037>040-046>048-054>057-064-065-261700-
CENTRAL INDIANA

CITY           SKY/WX    TMP DP  RH WIND       PRES   REMARKS
ANDERSON       MOSUNNY   79  66  65 CALM      30.08S
COLUMBUS       LGT RAIN  72  72 100 N5        30.07R VSB 1
INDIANAPOLIS   LGT RAIN  79  65  62 W3        30.09R
-EAGLE CREEK   CLOUDY    78  64  61 N3        30.07R
KOKOMO *+      CLOUDY    79  64  61 E6        30.08R
SHELBYVILLE    LGT RAIN  75  70  84 CALM      30.07R

$$

INZ033-034-041-042-049-050-058-059-261700-
EAST CENTRAL INDIANA

CITY           SKY/WX    TMP DP  RH WIND       PRES   REMARKS
MUNCIE         CLOUDY    80  66  62 E6        30.08S

$$

INZ060-061-067>069-081>083-085>088-261700-
SOUTHWEST INDIANA

CITY           SKY/WX    TMP DP  RH WIND       PRES   REMARKS
EVANSVILLE     MOSUNNY   84  75  74 NW3       30.02F
HUNTINGBURG *+ MOSUNNY   84  75  74 S3        30.03S

$$

INZ062-063-066-070>080-084-089>092-261700-
SOUTH CENTRAL AND SOUTHEAST INDIANA

CITY           SKY/WX    TMP DP  RH WIND       PRES   REMARKS
BLOOMINGTON    LGT RAIN  70  66  87 NE13      30.07R
MADISON *+     MOSUNNY   84  72  65 CALM      30.07F

$$





USA.gov is the U.S. government's official web portal to all federal, state and local government web resources and services.